TimeCDT,TemperatureF,Dew PointF,Humidity,Sea Level PressureIn,VisibilityMPH,Wind Direction,Wind SpeedMPH,Gust SpeedMPH,PrecipitationIn,Events,Conditions,WindDirDegrees,DateUTC
12:52 AM,75.9,66.0,71,29.91,-9999.0,SSE,12.7,-,N/A,,Unknown,160,2013-09-08 05:52:00
1:52 AM,73.9,66.0,76,29.91,-9999.0,SSE,10.4,-,N/A,,Unknown,160,2013-09-08 06:52:00
2:52 AM,73.0,66.9,81,29.91,-9999.0,SSE,8.1,-,0.01,,Unknown,160,2013-09-08 07:52:00
3:52 AM,75.0,66.9,76,29.96,-9999.0,East,5.8,-,N/A,,Unknown,90,2013-09-08 08:52:00
4:52 AM,73.9,66.9,79,29.92,-9999.0,ESE,9.2,-,N/A,,Unknown,120,2013-09-08 09:52:00
5:52 AM,73.9,68.0,82,29.86,-9999.0,SSE,17.3,-,N/A,,Unknown,160,2013-09-08 10:52:00
6:52 AM,73.0,69.1,87,29.89,-9999.0,SSE,6.9,-,N/A,,Unknown,160,2013-09-08 11:52:00
7:52 AM,73.0,69.1,87,29.91,-9999.0,East,6.9,-,N/A,,Unknown,100,2013-09-08 12:52:00
8:52 AM,71.1,66.0,84,29.92,-9999.0,East,13.8,-,N/A,,Unknown,100,2013-09-08 13:52:00
9:52 AM,73.9,66.9,79,29.91,-9999.0,ESE,10.4,-,N/A,,Unknown,110,2013-09-08 14:52:00
10:52 AM,77.0,68.0,74,29.91,-9999.0,East,10.4,-,N/A,,Unknown,100,2013-09-08 15:52:00
11:52 AM,81.0,69.1,67,29.88,-9999.0,SSE,15.0,-,N/A,,Unknown,150,2013-09-08 16:52:00
12:52 PM,82.0,70.0,67,29.86,-9999.0,SSE,15.0,-,N/A,,Unknown,150,2013-09-08 17:52:00
1:52 PM,88.0,70.0,55,29.82,-9999.0,SSE,18.4,25.3,N/A,,Unknown,160,2013-09-08 18:52:00
2:52 PM,90.0,69.1,50,29.78,-9999.0,South,17.3,26.5,N/A,,Unknown,170,2013-09-08 19:52:00
3:52 PM,91.9,66.9,44,29.75,-9999.0,South,17.3,26.5,N/A,,Unknown,190,2013-09-08 20:52:00
4:52 PM,91.9,68.0,45,29.72,-9999.0,SSW,18.4,24.2,N/A,,Unknown,210,2013-09-08 21:52:00
5:52 PM,91.0,70.0,50,29.72,-9999.0,SSW,16.1,-,N/A,,Unknown,200,2013-09-08 22:52:00
6:52 PM,89.1,71.1,55,29.72,-9999.0,South,8.1,-,N/A,,Unknown,180,2013-09-08 23:52:00
7:52 PM,84.0,71.1,65,29.72,-9999.0,SE,9.2,-,N/A,,Unknown,140,2013-09-09 00:52:00
8:52 PM,82.0,71.1,69,29.71,-9999.0,SSE,12.7,-,N/A,,Unknown,150,2013-09-09 01:52:00
9:52 PM,80.1,71.1,74,29.70,-9999.0,SSE,17.3,21.9,N/A,,Unknown,160,2013-09-09 02:52:00
10:52 PM,78.1,71.1,79,29.70,-9999.0,SSE,17.3,23.0,N/A,,Unknown,160,2013-09-09 03:52:00
11:52 PM,75.9,71.1,85,29.68,-9999.0,SSE,17.3,24.2,N/A,,Unknown,160,2013-09-09 04:52:00